Terminal Aerodrome Forecast
Issued by NWS Milwaukee/Sullivan, WI

Home | Current Version | Previous Version | Text Only | Print | Product List | Glossary On
Versions: 1 2 3 4 5 6 7 8 9 10 11 12 13 14 15 16 17 18 19 20 21 22 23 24 25 26 27 28 29 30 31 32 33 34 35 36 37
000
FTUS43 KMKX 191524 AAA
TAFMSN
TAF AMD
KMSN 191524Z 1915/2012 13012G19KT P6SM SCT100 BKN250
     FM200000 11007KT P6SM OVC070
     FM200600 VRB03KT P6SM VCSH OVC025
     FM201000 31007KT 5SM -SHRA OVC008=

USA.gov is the U.S. government's official web portal to all federal, state and local government web resources and services.